,,PressureMeas_1m,,PRMeasQMR101_1,,RHStat155_1m_1,,SRMeasQMS101R_1m,,TAStat155_1m_1,,GenWind_1,,GenWind_1,
2018-09-11, 00:00:06,VALID,920.734,VALID,0.0,VALID,97.512,VALID,0.015,VALID,20.488,VALID,3.0,VALID,0.0,
2018-09-11, 00:01:06,VALID,920.721,VALID,0.0,VALID,97.519,VALID,0.009,VALID,20.522,VALID,10.0,VALID,0.0,
2018-09-11, 00:02:06,VALID,920.718,VALID,0.0,VALID,97.451,VALID,-0.001,VALID,20.55,VALID,10.0,VALID,0.0,
2018-09-11, 00:03:06,VALID,920.725,VALID,0.0,VALID,97.226,VALID,0.007,VALID,20.527,VALID,341.0,VALID,0.0,
2018-09-11, 00:04:06,VALID,920.728,VALID,0.0,VALID,96.963,VALID,-0.001,VALID,20.474,VALID,340.0,VALID,0.0,
2018-09-11, 00:05:06,VALID,920.735,VALID,0.0,VALID,96.874,VALID,-0.021,VALID,20.451,VALID,275.0,VALID,0.0,
2018-09-11, 00:06:06,VALID,920.701,VALID,0.0,VALID,96.888,VALID,-0.005,VALID,20.459,VALID,296.0,VALID,0.0,
2018-09-11, 00:07:06,VALID,920.667,VALID,0.0,VALID,97.025,VALID,-0.004,VALID,20.505,VALID,302.0,VALID,0.0,
2018-09-11, 00:08:06,VALID,920.651,VALID,0.0,VALID,96.839,VALID,-0.005,VALID,20.501,INVALID,360.0,VALID,0.0,
2018-09-11, 00:09:06,VALID,920.623,VALID,0.0,VALID,96.716,VALID,0.015,VALID,20.507,INVALID,360.0,VALID,0.0,
2018-09-11, 00:10:06,VALID,920.594,VALID,0.0,VALID,96.726,VALID,0.006,VALID,20.53,VALID,298.0,VALID,0.0,
2018-09-11, 00:11:06,VALID,920.565,VALID,0.0,VALID,96.58,VALID,-0.009,VALID,20.511,VALID,339.0,VALID,0.0,
2018-09-11, 00:12:06,VALID,920.548,VALID,0.0,VALID,96.714,VALID,-0.011,VALID,20.517,VALID,344.0,VALID,0.0,
2018-09-11, 00:13:06,VALID,920.51,VALID,0.0,VALID,96.832,VALID,-0.021,VALID,20.535,INVALID,360.0,VALID,0.0,
2018-09-11, 00:14:06,VALID,920.524,VALID,0.0,VALID,96.791,VALID,-0.022,VALID,20.54,INVALID,360.0,VALID,0.0,
2018-09-11, 00:15:06,VALID,920.528,VALID,0.0,VALID,96.754,VALID,-0.008,VALID,20.553,INVALID,360.0,VALID,0.0,
2018-09-11, 00:16:06,VALID,920.506,VALID,0.0,VALID,96.552,VALID,-0.003,VALID,20.527,INVALID,360.0,VALID,0.0,
2018-09-11, 00:17:06,VALID,920.506,VALID,0.0,VALID,96.476,VALID,-0.003,VALID,20.513,INVALID,360.0,VALID,0.0,
2018-09-11, 00:18:06,VALID,920.495,VALID,0.0,VALID,96.633,VALID,-0.008,VALID,20.523,INVALID,360.0,VALID,0.0,
2018-09-11, 00:19:06,VALID,920.475,VALID,0.0,VALID,96.757,VALID,-0.001,VALID,20.543,INVALID,360.0,VALID,0.0,
2018-09-11, 00:20:06,VALID,920.454,VALID,0.0,VALID,96.678,VALID,0.017,VALID,20.533,VALID,303.0,VALID,0.0,
2018-09-11, 00:21:06,VALID,920.439,VALID,0.0,VALID,96.744,VALID,-0.003,VALID,20.542,VALID,303.0,VALID,0.0,
2018-09-11, 00:22:06,VALID,920.418,VALID,0.0,VALID,96.758,VALID,0.01,VALID,20.546,VALID,304.0,VALID,0.0,
2018-09-11, 00:23:06,VALID,920.407,VALID,0.0,VALID,96.771,VALID,-0.01,VALID,20.546,VALID,305.0,VALID,0.0,
2018-09-11, 00:24:06,VALID,920.4,VALID,0.0,VALID,96.687,VALID,-0.02,VALID,20.54,INVALID,360.0,VALID,0.0,
2018-09-11, 00:25:06,VALID,920.392,VALID,0.0,VALID,96.656,VALID,-0.014,VALID,20.538,VALID,109.0,VALID,0.0,
2018-09-11, 00:26:06,VALID,920.391,VALID,0.0,VALID,96.612,VALID,-0.011,VALID,20.531,VALID,109.0,VALID,0.0,
2018-09-11, 00:27:06,VALID,920.372,VALID,0.0,VALID,96.596,VALID,-0.01,VALID,20.524,VALID,94.0,VALID,0.0,
2018-09-11, 00:28:06,VALID,920.384,VALID,0.0,VALID,96.792,VALID,0.003,VALID,20.557,VALID,70.0,VALID,0.0,
2018-09-11, 00:29:06,VALID,920.375,VALID,0.0,VALID,96.659,VALID,0.026,VALID,20.551,VALID,69.0,VALID,0.0,
2018-09-11, 00:30:06,VALID,920.372,VALID,0.0,VALID,96.55,VALID,0.003,VALID,20.53,VALID,69.0,VALID,0.0,
2018-09-11, 00:31:06,VALID,920.358,VALID,0.0,VALID,96.503,VALID,-0.016,VALID,20.512,VALID,94.0,VALID,0.0,
2018-09-11, 00:32:06,VALID,920.335,VALID,0.0,VALID,96.563,VALID,0.006,VALID,20.527,VALID,70.0,VALID,0.0,
2018-09-11, 00:33:06,VALID,920.328,VALID,0.0,VALID,96.59,VALID,-0.009,VALID,20.551,VALID,70.0,VALID,0.0,
2018-09-11, 00:34:06,VALID,920.35,VALID,0.0,VALID,96.427,VALID,-0.012,VALID,20.559,VALID,91.0,VALID,0.0,
2018-09-11, 00:35:06,VALID,920.351,VALID,0.0,VALID,96.277,VALID,-0.01,VALID,20.573,VALID,110.0,VALID,0.0,
2018-09-11, 00:36:06,VALID,920.344,VALID,0.0,VALID,96.134,VALID,-0.029,VALID,20.576,VALID,110.0,VALID,0.0,
2018-09-11, 00:37:06,VALID,920.339,VALID,0.0,VALID,96.064,VALID,-0.017,VALID,20.578,VALID,107.0,VALID,0.0,
2018-09-11, 00:38:06,VALID,920.326,VALID,0.0,VALID,95.88,VALID,0.001,VALID,20.532,VALID,147.0,VALID,0.0,
2018-09-11, 00:39:06,VALID,920.323,VALID,0.0,VALID,95.952,VALID,0.011,VALID,20.506,VALID,156.0,VALID,0.0,
2018-09-11, 00:40:06,VALID,920.303,VALID,0.0,VALID,96.151,VALID,0.027,VALID,20.511,INVALID,360.0,VALID,0.0,
2018-09-11, 00:41:06,VALID,920.286,VALID,0.0,VALID,96.346,VALID,0.007,VALID,20.544,INVALID,360.0,VALID,0.0,
2018-09-11, 00:42:06,VALID,920.279,VALID,0.0,VALID,96.457,VALID,0.012,VALID,20.579,INVALID,360.0,VALID,0.0,
2018-09-11, 00:43:06,VALID,920.291,VALID,0.0,VALID,96.308,VALID,-0.0,VALID,20.575,VALID,313.0,VALID,0.0,
2018-09-11, 00:44:06,VALID,920.285,VALID,0.0,VALID,96.263,VALID,-0.002,VALID,20.549,VALID,30.0,VALID,0.0,
2018-09-11, 00:45:06,VALID,920.292,VALID,0.0,VALID,96.404,VALID,0.008,VALID,20.545,VALID,19.0,VALID,0.0,
2018-09-11, 00:46:06,VALID,920.273,VALID,0.0,VALID,96.535,VALID,0.017,VALID,20.537,VALID,13.0,VALID,0.0,
2018-09-11, 00:47:06,VALID,920.293,VALID,0.0,VALID,96.538,VALID,0.015,VALID,20.512,VALID,16.0,VALID,0.0,
2018-09-11, 00:48:06,VALID,920.266,VALID,0.0,VALID,96.619,VALID,0.012,VALID,20.489,VALID,20.0,VALID,0.0,
2018-09-11, 00:49:06,VALID,920.266,VALID,0.0,VALID,96.774,VALID,0.019,VALID,20.491,VALID,21.0,VALID,0.0,
2018-09-11, 00:50:06,VALID,920.258,VALID,0.0,VALID,96.795,VALID,0.018,VALID,20.498,VALID,25.0,VALID,0.0,
2018-09-11, 00:51:06,VALID,920.223,VALID,0.0,VALID,96.584,VALID,0.02,VALID,20.473,VALID,14.0,VALID,0.0,
2018-09-11, 00:52:06,VALID,920.209,VALID,0.0,VALID,96.656,VALID,0.007,VALID,20.462,VALID,2.0,VALID,0.0,
2018-09-11, 00:53:06,VALID,920.185,VALID,0.0,VALID,96.86,VALID,0.025,VALID,20.484,VALID,359.0,VALID,0.0,
2018-09-11, 00:54:06,VALID,920.168,VALID,0.0,VALID,96.947,VALID,0.018,VALID,20.504,VALID,6.0,VALID,0.0,
2018-09-11, 00:55:06,VALID,920.164,VALID,0.0,VALID,96.744,VALID,0.02,VALID,20.494,VALID,22.0,VALID,0.0,
2018-09-11, 00:56:06,VALID,920.139,VALID,0.0,VALID,96.661,VALID,0.025,VALID,20.496,VALID,28.0,VALID,0.0,
2018-09-11, 00:57:06,VALID,920.125,VALID,0.0,VALID,96.695,VALID,0.005,VALID,20.508,VALID,27.0,VALID,0.0,
2018-09-11, 00:58:06,VALID,920.114,VALID,0.0,VALID,96.753,VALID,0.028,VALID,20.53,VALID,25.0,VALID,0.0,
2018-09-11, 00:59:06,VALID,920.076,VALID,0.0,VALID,96.587,VALID,0.015,VALID,20.533,VALID,352.0,VALID,0.0,
2018-09-11, 01:00:06,VALID,920.058,VALID,0.0,VALID,96.383,VALID,0.016,VALID,20.527,VALID,351.0,VALID,0.0,
2018-09-11, 01:01:06,VALID,920.043,VALID,0.0,VALID,96.312,VALID,0.032,VALID,20.515,VALID,345.0,VALID,0.0,
2018-09-11, 01:02:06,VALID,920.02,VALID,0.0,VALID,96.191,VALID,0.032,VALID,20.486,VALID,60.0,VALID,0.0,
2018-09-11, 01:03:06,VALID,920.006,VALID,0.0,VALID,96.228,VALID,0.036,VALID,20.466,INVALID,360.0,VALID,0.0,
2018-09-11, 01:04:06,VALID,919.975,VALID,0.0,VALID,96.285,VALID,0.024,VALID,20.472,INVALID,360.0,VALID,0.0,
2018-09-11, 01:05:06,VALID,919.967,VALID,0.0,VALID,96.296,VALID,0.019,VALID,20.485,INVALID,360.0,VALID,0.0,
2018-09-11, 01:06:06,VALID,919.962,VALID,0.0,VALID,96.277,VALID,0.03,VALID,20.484,INVALID,360.0,VALID,0.0,
2018-09-11, 01:07:06,VALID,919.964,VALID,0.0,VALID,96.123,VALID,0.011,VALID,20.469,INVALID,360.0,VALID,0.0,
2018-09-11, 01:08:06,VALID,919.968,VALID,0.0,VALID,96.066,VALID,-0.001,VALID,20.463,INVALID,360.0,VALID,0.0,
2018-09-11, 01:09:06,VALID,919.964,VALID,0.0,VALID,96.305,VALID,-0.016,VALID,20.487,INVALID,360.0,VALID,0.0,
2018-09-11, 01:10:06,VALID,919.956,VALID,0.0,VALID,96.281,VALID,-0.016,VALID,20.483,INVALID,360.0,VALID,0.0,
2018-09-11, 01:11:06,VALID,919.95,VALID,0.0,VALID,96.248,VALID,-0.004,VALID,20.479,INVALID,360.0,VALID,0.0,
2018-09-11, 01:12:06,VALID,919.948,VALID,0.0,VALID,96.086,VALID,-0.026,VALID,20.458,INVALID,360.0,VALID,0.0,
2018-09-11, 01:13:06,VALID,919.95,VALID,0.0,VALID,96.109,VALID,-0.019,VALID,20.471,INVALID,360.0,VALID,0.0,
2018-09-11, 01:14:06,VALID,919.943,VALID,0.0,VALID,95.696,VALID,-0.001,VALID,20.433,INVALID,360.0,VALID,0.0,
2018-09-11, 01:15:06,VALID,919.942,VALID,0.0,VALID,95.784,VALID,-0.002,VALID,20.438,INVALID,360.0,VALID,0.0,
2018-09-11, 01:16:06,VALID,919.948,VALID,0.0,VALID,95.809,VALID,-0.021,VALID,20.455,VALID,275.0,VALID,0.0,
2018-09-11, 01:17:06,VALID,919.966,VALID,0.0,VALID,95.723,VALID,-0.018,VALID,20.463,VALID,293.0,VALID,0.0,
2018-09-11, 01:18:06,VALID,919.977,VALID,0.0,VALID,95.724,VALID,-0.003,VALID,20.474,VALID,293.0,VALID,0.0,
2018-09-11, 01:19:06,VALID,919.974,VALID,0.0,VALID,95.694,VALID,-0.008,VALID,20.473,VALID,293.0,VALID,0.0,
2018-09-11, 01:20:06,VALID,919.983,VALID,0.0,VALID,95.698,VALID,-0.003,VALID,20.472,VALID,293.0,VALID,0.0,
2018-09-11, 01:21:06,VALID,919.977,VALID,0.0,VALID,95.831,VALID,-0.008,VALID,20.49,VALID,293.0,VALID,0.0,
2018-09-11, 01:22:06,VALID,919.968,VALID,0.0,VALID,95.991,VALID,-0.007,VALID,20.515,VALID,294.0,VALID,0.0,
2018-09-11, 01:23:06,VALID,919.949,VALID,0.0,VALID,95.941,VALID,0.004,VALID,20.516,VALID,294.0,VALID,0.0,
2018-09-11, 01:24:06,VALID,919.928,VALID,0.0,VALID,95.922,VALID,0.002,VALID,20.516,VALID,294.0,VALID,0.0,
2018-09-11, 01:25:06,VALID,919.91,VALID,0.0,VALID,95.803,VALID,0.015,VALID,20.505,VALID,294.0,VALID,0.0,
2018-09-11, 01:26:06,VALID,919.864,VALID,0.0,VALID,95.92,VALID,0.012,VALID,20.521,VALID,294.0,VALID,0.0,
2018-09-11, 01:27:06,VALID,919.838,VALID,0.0,VALID,96.064,VALID,0.027,VALID,20.541,VALID,294.0,VALID,0.0,
2018-09-11, 01:28:06,VALID,919.801,VALID,0.0,VALID,96.058,VALID,0.023,VALID,20.557,VALID,294.0,VALID,0.0,
2018-09-11, 01:29:06,VALID,919.775,VALID,0.0,VALID,95.997,VALID,0.018,VALID,20.569,VALID,294.0,VALID,0.0,
2018-09-11, 01:30:06,VALID,919.767,VALID,0.0,VALID,95.825,VALID,0.009,VALID,20.571,VALID,294.0,VALID,0.0,
2018-09-11, 01:31:06,VALID,919.737,VALID,0.0,VALID,95.855,VALID,0.005,VALID,20.571,VALID,301.0,VALID,0.0,
2018-09-11, 01:32:06,VALID,919.722,VALID,0.0,VALID,95.905,VALID,0.008,VALID,20.572,VALID,303.0,VALID,0.0,
2018-09-11, 01:33:06,VALID,919.736,VALID,0.0,VALID,95.922,VALID,0.019,VALID,20.572,VALID,303.0,VALID,0.0,
2018-09-11, 01:34:06,VALID,919.709,VALID,0.0,VALID,95.758,VALID,0.011,VALID,20.547,VALID,303.0,VALID,0.0,
2018-09-11, 01:35:06,VALID,919.689,VALID,0.0,VALID,95.692,VALID,0.011,VALID,20.523,VALID,303.0,VALID,0.0,
2018-09-11, 01:36:06,VALID,919.663,VALID,0.0,VALID,95.769,VALID,0.018,VALID,20.524,VALID,303.0,VALID,0.0,
2018-09-11, 01:37:06,VALID,919.611,VALID,0.0,VALID,95.853,VALID,-0.001,VALID,20.535,VALID,303.0,VALID,0.0,
2018-09-11, 01:38:06,VALID,919.622,VALID,0.0,VALID,95.777,VALID,-0.02,VALID,20.525,VALID,304.0,VALID,0.0,
2018-09-11, 01:39:06,VALID,919.604,VALID,0.0,VALID,95.523,VALID,-0.019,VALID,20.492,VALID,307.0,VALID,0.0,
2018-09-11, 01:40:06,VALID,919.617,VALID,0.0,VALID,95.338,VALID,-0.009,VALID,20.452,VALID,316.0,VALID,0.0,
2018-09-11, 01:41:06,VALID,919.629,VALID,0.0,VALID,95.526,VALID,-0.008,VALID,20.395,VALID,347.0,VALID,0.0,
2018-09-11, 01:42:06,VALID,919.642,VALID,0.0,VALID,95.832,VALID,-0.015,VALID,20.352,VALID,16.0,VALID,0.0,
2018-09-11, 01:43:06,VALID,919.645,VALID,0.0,VALID,96.087,VALID,-0.026,VALID,20.312,VALID,25.0,VALID,0.0,
2018-09-11, 01:44:06,VALID,919.643,VALID,0.0,VALID,96.325,VALID,-0.041,VALID,20.302,VALID,31.0,VALID,0.0,
2018-09-11, 01:45:06,VALID,919.64,VALID,0.0,VALID,96.308,VALID,-0.026,VALID,20.274,VALID,32.0,VALID,0.0,
2018-09-11, 01:46:06,VALID,919.622,VALID,0.0,VALID,96.448,VALID,-0.02,VALID,20.237,VALID,35.0,VALID,0.0,
2018-09-11, 01:47:06,VALID,919.614,VALID,0.0,VALID,96.537,VALID,-0.009,VALID,20.192,VALID,65.0,VALID,0.0,
2018-09-11, 01:48:06,VALID,919.613,VALID,0.0,VALID,96.53,VALID,-0.009,VALID,20.147,VALID,66.0,VALID,0.0,
2018-09-11, 01:49:06,VALID,919.618,VALID,0.0,VALID,96.703,VALID,-0.03,VALID,20.12,VALID,86.0,VALID,0.0,
2018-09-11, 01:50:06,VALID,919.616,VALID,0.0,VALID,96.865,VALID,-0.036,VALID,20.11,VALID,90.0,VALID,0.0,
2018-09-11, 01:51:06,VALID,919.592,VALID,0.0,VALID,97.037,VALID,-0.028,VALID,20.098,VALID,94.0,VALID,0.0,
2018-09-11, 01:52:06,VALID,919.583,VALID,0.0,VALID,97.101,VALID,-0.024,VALID,20.078,VALID,109.0,VALID,0.0,
2018-09-11, 01:53:06,VALID,919.544,VALID,0.0,VALID,97.189,VALID,-0.001,VALID,20.059,VALID,118.0,VALID,0.0,
2018-09-11, 01:54:06,VALID,919.498,VALID,0.0,VALID,97.272,VALID,0.014,VALID,20.068,VALID,132.0,VALID,0.0,
2018-09-11, 01:55:06,VALID,919.493,VALID,0.0,VALID,97.321,VALID,-0.002,VALID,20.088,VALID,132.0,VALID,0.0,
2018-09-11, 01:56:06,VALID,919.478,VALID,0.0,VALID,97.359,VALID,-0.01,VALID,20.117,VALID,132.0,VALID,0.0,
2018-09-11, 01:57:06,VALID,919.48,VALID,0.0,VALID,97.319,VALID,-0.007,VALID,20.127,VALID,132.0,VALID,0.0,
2018-09-11, 01:58:06,VALID,919.458,VALID,0.0,VALID,97.272,VALID,0.008,VALID,20.131,VALID,132.0,VALID,0.0,
2018-09-11, 01:59:06,VALID,919.44,VALID,0.0,VALID,97.208,VALID,0.004,VALID,20.131,VALID,132.0,VALID,0.0,
2018-09-11, 02:00:06,VALID,919.447,VALID,0.0,VALID,97.211,VALID,0.007,VALID,20.163,VALID,132.0,VALID,0.0,
2018-09-11, 02:01:06,VALID,919.425,VALID,0.0,VALID,97.212,VALID,-0.004,VALID,20.2,VALID,132.0,VALID,0.0,
2018-09-11, 02:02:06,VALID,919.449,VALID,0.0,VALID,97.001,VALID,-0.011,VALID,20.199,VALID,132.0,VALID,0.0,
2018-09-11, 02:03:06,VALID,919.458,VALID,0.0,VALID,96.724,VALID,-0.021,VALID,20.154,VALID,132.0,VALID,0.0,
2018-09-11, 02:04:06,VALID,919.443,VALID,0.0,VALID,96.602,VALID,-0.005,VALID,20.089,VALID,132.0,VALID,0.0,
2018-09-11, 02:05:06,VALID,919.444,VALID,0.0,VALID,96.74,VALID,0.005,VALID,20.033,VALID,131.0,VALID,0.0,
2018-09-11, 02:06:06,VALID,919.453,VALID,0.0,VALID,96.704,VALID,0.0,VALID,19.973,VALID,121.0,VALID,0.0,
2018-09-11, 02:07:06,VALID,919.464,VALID,0.0,VALID,96.756,VALID,-0.006,VALID,19.94,VALID,91.0,VALID,0.0,
2018-09-11, 02:08:06,VALID,919.453,VALID,0.0,VALID,96.984,VALID,-0.009,VALID,19.946,VALID,85.0,VALID,0.0,
2018-09-11, 02:09:06,VALID,919.43,VALID,0.0,VALID,97.13,VALID,-0.007,VALID,19.937,VALID,84.0,VALID,0.0,
2018-09-11, 02:10:06,VALID,919.418,VALID,0.0,VALID,97.101,VALID,-0.008,VALID,19.878,VALID,72.0,VALID,0.0,
2018-09-11, 02:11:06,VALID,919.405,VALID,0.0,VALID,97.132,VALID,-0.006,VALID,19.831,VALID,59.0,VALID,0.0,
2018-09-11, 02:12:06,VALID,919.396,VALID,0.0,VALID,97.335,VALID,-0.005,VALID,19.818,VALID,58.0,VALID,0.0,
2018-09-11, 02:13:06,VALID,919.376,VALID,0.0,VALID,97.496,VALID,-0.009,VALID,19.814,VALID,56.0,VALID,0.0,
2018-09-11, 02:14:06,VALID,919.381,VALID,0.0,VALID,97.581,VALID,-0.016,VALID,19.795,VALID,64.0,VALID,0.0,
2018-09-11, 02:15:06,VALID,919.358,VALID,0.0,VALID,97.752,VALID,-0.008,VALID,19.796,VALID,69.0,VALID,0.0,
2018-09-11, 02:16:06,VALID,919.335,VALID,0.0,VALID,97.942,VALID,-0.004,VALID,19.82,VALID,72.0,VALID,0.0,
2018-09-11, 02:17:06,VALID,919.341,VALID,0.0,VALID,98.026,VALID,-0.009,VALID,19.821,VALID,71.0,VALID,0.0,
2018-09-11, 02:18:06,VALID,919.334,VALID,0.0,VALID,98.114,VALID,-0.011,VALID,19.825,VALID,70.0,VALID,0.0,
2018-09-11, 02:19:06,VALID,919.341,VALID,0.0,VALID,98.095,VALID,0.019,VALID,19.803,VALID,70.0,VALID,0.0,
2018-09-11, 02:20:06,VALID,919.338,VALID,0.0,VALID,98.11,VALID,0.006,VALID,19.79,VALID,70.0,VALID,0.0,
2018-09-11, 02:21:06,VALID,919.325,VALID,0.0,VALID,98.18,VALID,-0.002,VALID,19.797,VALID,64.0,VALID,0.0,
2018-09-11, 02:22:06,VALID,919.319,VALID,0.0,VALID,98.167,VALID,-0.018,VALID,19.774,VALID,61.0,VALID,0.0,
2018-09-11, 02:23:06,VALID,919.325,VALID,0.0,VALID,98.188,VALID,0.007,VALID,19.762,VALID,67.0,VALID,0.0,
2018-09-11, 02:24:06,VALID,919.304,VALID,0.0,VALID,98.245,VALID,0.006,VALID,19.777,VALID,69.0,VALID,0.0,
2018-09-11, 02:25:06,VALID,919.276,VALID,0.0,VALID,98.249,VALID,-0.002,VALID,19.791,VALID,69.0,VALID,0.0,
2018-09-11, 02:26:06,VALID,919.276,VALID,0.0,VALID,98.257,VALID,-0.004,VALID,19.794,VALID,69.0,VALID,0.0,
2018-09-11, 02:27:06,VALID,919.273,VALID,0.0,VALID,98.292,VALID,-0.011,VALID,19.8,VALID,69.0,VALID,0.0,
2018-09-11, 02:28:06,VALID,919.273,VALID,0.0,VALID,98.3,VALID,0.006,VALID,19.797,VALID,68.0,VALID,0.0,
2018-09-11, 02:29:06,VALID,919.265,VALID,0.0,VALID,98.307,VALID,-0.002,VALID,19.798,VALID,69.0,VALID,0.0,
2018-09-11, 02:30:06,VALID,919.267,VALID,0.0,VALID,98.313,VALID,-0.006,VALID,19.801,VALID,69.0,VALID,0.0,
2018-09-11, 02:31:06,VALID,919.265,VALID,0.0,VALID,98.308,VALID,-0.016,VALID,19.784,VALID,70.0,VALID,0.0,
2018-09-11, 02:32:06,VALID,919.285,VALID,0.0,VALID,98.261,VALID,-0.026,VALID,19.759,VALID,104.0,VALID,0.0,
2018-09-11, 02:33:06,VALID,919.282,VALID,0.0,VALID,98.222,VALID,0.006,VALID,19.749,VALID,104.0,VALID,0.0,
2018-09-11, 02:34:06,VALID,919.274,VALID,0.0,VALID,98.218,VALID,-0.006,VALID,19.778,VALID,104.0,VALID,0.0,
2018-09-11, 02:35:06,VALID,919.272,VALID,0.0,VALID,98.242,VALID,0.004,VALID,19.811,VALID,104.0,VALID,0.0,
2018-09-11, 02:36:06,VALID,919.26,VALID,0.0,VALID,98.184,VALID,-0.001,VALID,19.809,VALID,104.0,VALID,0.0,
2018-09-11, 02:37:06,VALID,919.245,VALID,0.0,VALID,98.087,VALID,-0.005,VALID,19.804,VALID,104.0,VALID,0.0,
2018-09-11, 02:38:06,VALID,919.244,VALID,0.0,VALID,97.881,VALID,-0.032,VALID,19.78,VALID,104.0,VALID,0.0,
2018-09-11, 02:39:06,VALID,919.22,VALID,0.0,VALID,97.724,VALID,-0.008,VALID,19.777,VALID,104.0,VALID,0.0,
2018-09-11, 02:40:06,VALID,919.249,VALID,0.0,VALID,97.699,VALID,-0.021,VALID,19.797,VALID,104.0,VALID,0.0,
2018-09-11, 02:41:06,VALID,919.225,VALID,0.0,VALID,97.66,VALID,-0.023,VALID,19.828,VALID,104.0,VALID,0.0,
2018-09-11, 02:42:06,VALID,919.228,VALID,0.0,VALID,97.647,VALID,0.004,VALID,19.859,VALID,104.0,VALID,0.0,
2018-09-11, 02:43:06,VALID,919.196,VALID,0.0,VALID,97.568,VALID,-0.014,VALID,19.852,VALID,105.0,VALID,0.0,
2018-09-11, 02:44:06,VALID,919.173,VALID,0.0,VALID,97.516,VALID,-0.006,VALID,19.856,VALID,106.0,VALID,0.0,
2018-09-11, 02:45:06,VALID,919.158,VALID,0.0,VALID,97.587,VALID,-0.013,VALID,19.885,VALID,107.0,VALID,0.0,
2018-09-11, 02:46:06,VALID,919.117,VALID,0.0,VALID,97.517,VALID,-0.012,VALID,19.878,VALID,113.0,VALID,0.0,
2018-09-11, 02:47:06,VALID,919.134,VALID,0.0,VALID,97.489,VALID,0.003,VALID,19.883,VALID,121.0,VALID,0.0,
2018-09-11, 02:48:06,VALID,919.124,VALID,0.0,VALID,97.532,VALID,-0.0,VALID,19.896,VALID,121.0,VALID,0.0,
2018-09-11, 02:49:06,VALID,919.124,VALID,0.0,VALID,97.546,VALID,-0.008,VALID,19.906,VALID,121.0,VALID,0.0,
2018-09-11, 02:50:06,VALID,919.119,VALID,0.0,VALID,97.492,VALID,-0.006,VALID,19.89,VALID,121.0,VALID,0.0,
2018-09-11, 02:51:06,VALID,919.088,VALID,0.0,VALID,97.508,VALID,-0.013,VALID,19.875,VALID,121.0,VALID,0.0,
2018-09-11, 02:52:06,VALID,919.086,VALID,0.0,VALID,97.422,VALID,0.005,VALID,19.826,VALID,121.0,VALID,0.0,
2018-09-11, 02:53:06,VALID,919.071,VALID,0.0,VALID,97.108,VALID,0.01,VALID,19.73,VALID,121.0,VALID,0.0,
2018-09-11, 02:54:06,VALID,919.046,VALID,0.0,VALID,96.941,VALID,0.006,VALID,19.68,VALID,121.0,VALID,0.0,
2018-09-11, 02:55:06,VALID,919.063,VALID,0.0,VALID,96.68,VALID,0.002,VALID,19.609,VALID,139.0,VALID,0.0,
2018-09-11, 02:56:06,VALID,919.077,VALID,0.0,VALID,96.538,VALID,-0.001,VALID,19.568,VALID,143.0,VALID,0.0,
2018-09-11, 02:57:06,VALID,919.061,VALID,0.0,VALID,96.582,VALID,-0.016,VALID,19.538,VALID,141.0,VALID,0.0,
2018-09-11, 02:58:06,VALID,919.058,VALID,0.0,VALID,96.827,VALID,-0.0,VALID,19.521,VALID,142.0,VALID,0.0,
2018-09-11, 02:59:06,VALID,919.048,VALID,0.0,VALID,97.203,VALID,-0.001,VALID,19.539,VALID,139.0,VALID,0.0,
2018-09-11, 03:00:06,VALID,919.062,VALID,0.0,VALID,97.445,VALID,-0.01,VALID,19.553,VALID,138.0,VALID,0.0,
2018-09-11, 03:01:06,VALID,919.046,VALID,0.0,VALID,97.648,VALID,0.005,VALID,19.566,VALID,133.0,VALID,0.0,
2018-09-11, 03:02:06,VALID,919.045,VALID,0.0,VALID,97.771,VALID,-0.012,VALID,19.566,VALID,132.0,VALID,0.0,
2018-09-11, 03:03:06,VALID,919.037,VALID,0.0,VALID,97.869,VALID,-0.015,VALID,19.565,VALID,133.0,VALID,0.0,
2018-09-11, 03:04:06,VALID,919.012,VALID,0.0,VALID,98.049,VALID,-0.014,VALID,19.605,VALID,133.0,VALID,0.0,
2018-09-11, 03:05:06,VALID,918.992,VALID,0.0,VALID,98.129,VALID,0.002,VALID,19.631,VALID,142.0,VALID,0.0,
2018-09-11, 03:06:06,VALID,918.979,VALID,0.0,VALID,98.191,VALID,-0.006,VALID,19.635,INVALID,360.0,VALID,0.0,
2018-09-11, 03:07:06,VALID,918.977,VALID,0.0,VALID,98.224,VALID,0.005,VALID,19.627,INVALID,360.0,VALID,0.0,
2018-09-11, 03:08:06,VALID,918.979,VALID,0.0,VALID,98.318,VALID,0.006,VALID,19.651,VALID,143.0,VALID,0.0,
2018-09-11, 03:09:06,VALID,919.0,VALID,0.0,VALID,98.398,VALID,-0.004,VALID,19.673,VALID,143.0,VALID,0.0,
2018-09-11, 03:10:06,VALID,919.003,VALID,0.0,VALID,98.419,VALID,-0.01,VALID,19.662,VALID,142.0,VALID,0.0,
2018-09-11, 03:11:06,VALID,918.986,VALID,0.0,VALID,98.244,VALID,-0.006,VALID,19.549,VALID,142.0,VALID,0.0,
2018-09-11, 03:12:06,VALID,918.961,VALID,0.0,VALID,98.185,VALID,0.002,VALID,19.484,VALID,142.0,VALID,0.0,
2018-09-11, 03:13:06,VALID,918.959,VALID,0.0,VALID,98.188,VALID,-0.007,VALID,19.465,VALID,142.0,VALID,0.0,
2018-09-11, 03:14:06,VALID,918.933,VALID,0.0,VALID,98.281,VALID,-0.005,VALID,19.516,VALID,143.0,VALID,0.0,
2018-09-11, 03:15:06,VALID,918.926,VALID,0.0,VALID,98.412,VALID,0.013,VALID,19.593,INVALID,360.0,VALID,0.0,
2018-09-11, 03:16:06,VALID,918.913,VALID,0.0,VALID,98.468,VALID,0.001,VALID,19.614,INVALID,360.0,VALID,0.0,
2018-09-11, 03:17:06,VALID,918.907,VALID,0.0,VALID,98.48,VALID,0.008,VALID,19.616,INVALID,360.0,VALID,0.0,
2018-09-11, 03:18:06,VALID,918.898,VALID,0.0,VALID,98.548,VALID,-0.004,VALID,19.633,VALID,153.0,VALID,0.0,
2018-09-11, 03:19:06,VALID,918.894,VALID,0.0,VALID,98.547,VALID,-0.003,VALID,19.64,INVALID,360.0,VALID,0.0,
2018-09-11, 03:20:06,VALID,918.873,VALID,0.0,VALID,98.589,VALID,-0.012,VALID,19.643,VALID,139.0,VALID,0.0,
2018-09-11, 03:21:06,VALID,918.852,VALID,0.0,VALID,98.614,VALID,-0.002,VALID,19.663,INVALID,360.0,VALID,0.0,
2018-09-11, 03:22:06,VALID,918.839,VALID,0.0,VALID,98.646,VALID,0.01,VALID,19.678,INVALID,360.0,VALID,0.0,
2018-09-11, 03:23:06,VALID,918.84,VALID,0.0,VALID,98.644,VALID,0.01,VALID,19.694,VALID,167.0,VALID,0.0,
2018-09-11, 03:24:06,VALID,918.824,VALID,0.0,VALID,98.65,VALID,0.016,VALID,19.705,VALID,158.0,VALID,0.0,
2018-09-11, 03:25:06,VALID,918.817,VALID,0.0,VALID,98.683,VALID,-0.005,VALID,19.718,INVALID,360.0,VALID,0.0,
2018-09-11, 03:26:06,VALID,918.819,VALID,0.0,VALID,98.694,VALID,0.006,VALID,19.728,VALID,167.0,VALID,0.0,
2018-09-11, 03:27:06,VALID,918.814,VALID,0.0,VALID,98.708,VALID,0.004,VALID,19.73,VALID,154.0,VALID,0.0,
2018-09-11, 03:28:06,VALID,918.794,VALID,0.0,VALID,98.705,VALID,0.011,VALID,19.74,VALID,156.0,VALID,0.0,
2018-09-11, 03:29:06,VALID,918.789,VALID,0.0,VALID,98.732,VALID,0.003,VALID,19.759,VALID,139.0,VALID,0.0,
2018-09-11, 03:30:06,VALID,918.784,VALID,0.0,VALID,98.734,VALID,0.005,VALID,19.779,VALID,144.0,VALID,0.0,
2018-09-11, 03:31:06,VALID,918.8,VALID,0.0,VALID,98.732,VALID,0.003,VALID,19.784,VALID,151.0,VALID,0.0,
2018-09-11, 03:32:06,VALID,918.785,VALID,0.0,VALID,98.723,VALID,0.014,VALID,19.79,VALID,140.0,VALID,0.0,
2018-09-11, 03:33:06,VALID,918.771,VALID,0.0,VALID,98.721,VALID,0.006,VALID,19.799,VALID,137.0,VALID,0.0,
2018-09-11, 03:34:06,VALID,918.744,VALID,0.0,VALID,98.728,VALID,0.011,VALID,19.821,VALID,140.0,VALID,0.0,
2018-09-11, 03:35:06,VALID,918.73,VALID,0.0,VALID,98.73,VALID,0.019,VALID,19.858,VALID,165.0,VALID,0.0,
2018-09-11, 03:36:06,VALID,918.718,VALID,0.0,VALID,98.705,VALID,0.008,VALID,19.88,VALID,162.0,VALID,0.0,
2018-09-11, 03:37:06,VALID,918.71,VALID,0.0,VALID,98.677,VALID,-0.0,VALID,19.879,VALID,162.0,VALID,0.0,
2018-09-11, 03:38:06,VALID,918.685,VALID,0.0,VALID,98.583,VALID,0.006,VALID,19.848,VALID,161.0,VALID,0.0,
2018-09-11, 03:39:06,VALID,918.669,VALID,0.0,VALID,98.528,VALID,0.005,VALID,19.834,VALID,144.0,VALID,0.0,
2018-09-11, 03:40:06,VALID,918.659,VALID,0.0,VALID,98.457,VALID,0.013,VALID,19.823,VALID,144.0,VALID,0.0,
2018-09-11, 03:41:06,VALID,918.649,VALID,0.0,VALID,98.431,VALID,0.019,VALID,19.818,VALID,144.0,VALID,0.0,